Regional Weather Roundup
Issued by NWS

Home | Current Version | Previous Version | Graphics & Text | Print | Product List | Glossary On
Versions: 1 2 3 4 5 6 7 8 9 10 11 12 13 14 15 16 17 18 19 20 21 22 23 24 25 26 27 28 29 30 31 32 33 34 35 36 37 38 39 40 41 42 43 44 45 46 47 48 49 50
000
ASUS43 KMPX 190810
RWRMN
WEATHER ROUNDUP FOR MINNESOTA
NATIONAL WEATHER SERVICE TWIN CITIES/CHANHASSEN MN
300 AM CDT SAT APR 19 2014


NOTE: "FAIR" INDICATES FEW OR NO CLOUDS BELOW 12,000 FEET WITH NO
SIGNIFICANT WEATHER AND/OR OBSTRUCTIONS TO VISIBILITY. N/A MEANS
CURRENT SKY AND/OR WEATHER CONDITIONS ARE NOT AVAILABLE.

MNZ060>063-068>070-190900-
   Twin Cities Metro

CITY           SKY/WX    TMP DP  RH WIND       PRES   REMARKS
TWIN CITIES    PTCLDY    45  28  51 SE18G30   30.15F
ST PAUL        PTCLDY    44  27  51 SE16      30.17F
CRYSTAL        MOCLDY    46  27  47 SE16G24   30.13F
BLAINE         MOCLDY    46  28  49 SE17      30.14F
EDEN PRAIRIE   MOCLDY    44  29  55 SE16      30.12F
LAKEVILLE      PTCLDY    41  30  65 SE9       30.16S
SOUTH ST PAUL  PTCLDY    48  28  46 SE12G20   30.17F
LAKE ELMO      FAIR      43  28  56 SE9G16    30.19S
$$
MNZ001>005-007-008-013>017-022>024-027-028-190900-
   Northwest Minnesota

CITY           SKY/WX    TMP DP  RH WIND       PRES   REMARKS
BEMIDJI        CLOUDY    37  27  69 SE20G31   29.95F
HALLOCK        CLOUDY    39  30  70 SE25G36   29.79F
ROSEAU         LGT RAIN  34  28  80 E18G35    29.90F WCI  23
WARROAD        LGT SNOW  34  30  86 E24G33    29.93F WCI  21
THIEF RVR FALL CLOUDY    39  28  65 SE21G26   29.81S
CROOKSTON      CLOUDY    46  30  53 SE25G33   29.78R
FOSSTON        DRIZZLE   43  27  52 SE21G38   29.81F
DETROIT LAKES  CLOUDY    43  30  61 SE30G39   29.84F
MOORHEAD       CLOUDY    50  34  53 SE31G43   29.74F
PARK RAPIDS    CLOUDY    43  25  49 SE26G40   29.95F
$$
MNZ006-009>011-018-025>026-190900-
   North Central Minnesota

CITY           SKY/WX    TMP DP  RH WIND       PRES   REMARKS
BAUDETTE       FRZ RAIN  34  27  75 SE18G30   29.99F WCI  23
FLAG ISLAND    FLURRIES  34  30  86 E17G29    29.99F WCI  23
INTL FALLS     FLURRIES  32  27  81 SE16G22   30.14F WCI  21
WASKISH        MIX PCPN  34  28  80 E21G26    29.98F WCI  22
BIG FORK       CLOUDY    37  19  48 SE14G21   30.11F
LONGVILLE      LGT RAIN  37  25  60 SE9G21    30.04F
GRAND RAPIDS   CLOUDY    36  18  48 SE13G20   30.12F
CRANE LAKE     CLOUDY    34  21  60 SE5       30.23F WCI  30
ORR            CLOUDY    34  19  55 SE9G17    30.15F WCI  26
COOK           CLOUDY    36  21  55 SE10G16   30.20F
$$
MNZ012-019>021-037-190900-
   Northeast Minnesota

CITY           SKY/WX    TMP DP  RH WIND       PRES   REMARKS
DULUTH         CLOUDY    33  24  69 E18       30.24S WCI  22
ELY            CLOUDY    32  25  74 SE10      30.25F WCI  24
HIBBING        CLOUDY    37  21  52 SE13      30.18F
EVELETH        CLOUDY    34  23  64 E10       30.22F WCI  26
DULUTH HARBOR  CLOUDY    32  28  86 NE15      30.29S WCI  22
TWO HARBORS    CLOUDY    30  23  74 E10       30.27F WCI  21
SILVER BAY     CLOUDY    30  27  86 NE10G17   30.30F WCI  21
GRAND MARAIS     N/A     33  25  72 NE8       30.39F WCI  26
G MARAIS ARPRT CLOUDY    28  19  69 E7        30.34F WCI  21
$$
MNZ029>031-032-039>041-046>048-054>057-064-190900-
   West Central Minnesota

CITY           SKY/WX    TMP DP  RH WIND       PRES   REMARKS
FERGUS FALLS   CLOUDY    45  28  53 SE28G37   29.83F
WHEATON        LGT RAIN  48  39  71 SE26G37   29.83F
MORRIS         CLOUDY    45  36  70 SE30G38   29.87F
ALEXANDRIA     CLOUDY    41  30  65 E21G29    29.99F
ELBOW LAKE     FAIR      47  32  55 SE28G41   29.86F
WADENA         CLOUDY    41  27  56 SE29G37   29.94F
GLENWOOD       CLOUDY    45  32  61 SE23G31   29.98F
APPLETON       CLOUDY    52  34  50 SE22G30   29.88F
BENSON         CLOUDY    45  34  65 S22G31    29.93F
ORTONVILLE     CLOUDY    46  36  66 SE25G36   29.84F
MADISON        CLOUDY    48  37  66 SE26G33   29.87F
WILLMAR        FAIR      43  34  70 SE26      30.00F
$$
MNZ033>034-036-042>043-049>051-058-059-190900-
   Central Minnesota

CITY           SKY/WX    TMP DP  RH WIND       PRES   REMARKS
ST CLOUD       CLOUDY    43  27  53 SE14G20   30.09S
SAUK CENTRE    FAIR      41  30  64 SE16      30.02F
PAYNESVILLE    MOCLDY    44  30  59 SE16G22   30.04F
AITKIN         CLOUDY    43  23  45 E12       30.11F
PINE RIVER     CLOUDY    43  27  52 SE20G28   30.07F
BRAINERD       CLOUDY    47  24  40 SE14G24   30.09F
STAPLES        MOCLDY    43  27  52 SE13G22   30.01F
LONG PRAIRIE   MOCLDY    39  28  65 E17G25    30.02F
LITTLE FALLS   MOCLDY    41  28  60 SE13G18   30.08S
LITCHFIELD     MOCLDY    45  32  61 SE15      30.07S
BUFFALO        CLOUDY    45  29  53 SE14      30.12S
MAPLE LAKE     MOCLDY    45  32  61 SE14      30.10S
$$
MNZ037-044-045-052-053-190900-
   East Central Minnesota

CITY           SKY/WX    TMP DP  RH WIND       PRES   REMARKS
PRINCETON      CLOUDY    43  27  52 E15G22    30.13S
MORA           CLOUDY    37  25  60 E8        30.18S
CAMBRIDGE      MOCLDY    45  28  53 SE10G17   30.13F
RUSH CITY      MOCLDY    42  25  50 SE12G18   30.17F
MOOSE LAKE     CLOUDY    36  23  60 NE6       30.19S
HINCKLEY       CLOUDY    41  27  56 E9        30.19R
CLOQUET        CLOUDY    34  25  69 E10       30.22S WCI  26
MCGREGOR       CLOUDY    36  23  60 SE13G18   30.16F
$$
MNZ071>073-080-081-089-090-097-098-190900-
   Southwest Minnesota

CITY           SKY/WX    TMP DP  RH WIND       PRES   REMARKS
MONTEVIDEO     CLOUDY    48  36  61 S23G31    29.93F
GRANITE FALLS  CLOUDY    45  33  62 SE21G28   29.98F
CANBY          CLOUDY    47  38  71 SE20      29.90F
MARSHALL       CLOUDY    48  36  61 SE16      29.96R
REDWOOD FALLS  MOCLDY    47  33  58 SE16G26   30.04R
OLIVIA         MOCLDY    43  32  65 SE15      30.03R
PIPESTONE      CLOUDY    52  39  62 S18G25    29.94R
WINDOM         MOCLDY    48  36  61 SE20      30.01S
WORTHINGTON    MOCLDY    48  34  57 S18G24    30.00F
JACKSON        MOCLDY    50  34  53 S21       30.03F
TRACY          MOCLDY    50  37  61 S10G21    30.00R
SLAYTON        CLOUDY    48  36  64 SE18G25   29.96F
$$
MNZ065>067-074>077-082>085-091>093-190900-
   South Central Minnesota

CITY           SKY/WX    TMP DP  RH WIND       PRES   REMARKS
MANKATO        PTCLDY    46  30  53 SE21      30.10F
NEW ULM        PTCLDY    46  34  61 SE18      30.06S
ST JAMES       PTCLDY    46  32  57 SE17G23   30.06S
FAIRMONT       PTCLDY    46  28  49 SE22G28   30.07F
GLENCOE        PTCLDY    46  31  56 SE17G23   30.09S
FARIBAULT      PTCLDY    46  28  49 SE18G24   30.15F
OWATONNA       PTCLDY    43  30  61 SE20      30.14F
WASECA         PTCLDY    43  34  70 SE18G24   30.14F
ALBERT LEA     PTCLDY    45  34  65 SE15G21   30.14F
$$
MNZ078>079-086>088-094>096-190900-
   Southeast Minnesota

CITY           SKY/WX    TMP DP  RH WIND       PRES   REMARKS
ROCHESTER      PTCLDY    41  29  62 SE17      30.20F
RED WING       PTCLDY    45  27  49 SE14      30.21F
STANTON        CLEAR     45  29  53 SE16G23   30.15F
DODGE CENTER   PTCLDY    45  30  57 SE17      30.18F
WINONA         MOCLDY    43  32  65 SE8       30.27R
AUSTIN         PTCLDY    45  30  57 SE13      30.17F
PRESTON        PTCLDY    42  31  64 SE12G18   30.24R
$$
ABBREVIATIONS USED IN REMARKS
   TC - TEMPERATURES IN CELSIUS
  WCI - WIND CHILL INDEX
   HX - HEAT INDEX
  VSB - VISIBILITY
$$


USA.gov is the U.S. government's official web portal to all federal, state and local government web resources and services.